Chongqing, China

7:13 AM CST on November 20, 2019 (GMT +0800)
Jiangbei

Weather History for ZUCK - September, 2019

Change the Weather History Date:

Wednesday, September 18, 2019

  Actual Average (WUND) Record (WUND)
Temperature  
Mean Temperature 70 °F -  
Max Temperature 75 °F - - (-1)
Min Temperature 66 °F - - (-1)
Cooling Degree Days 6    
Growing Degree Days 20 (Base 50)    
Moisture  
Dew Point 66 °F    
Average Humidity 90    
Maximum Humidity 100    
Minimum Humidity 62    
Precipitation  
Precipitation 0.02 in - - ()
Sea Level Pressure  
Sea Level Pressure 30.10 in    
Wind  
Wind Speed 3 mph ()    
Max Wind Speed 7 mph    
Max Gust Speed -    
Visibility 6.4 miles    
Events Fog , Rain    
Averages and records for this station are not official NWS values.
T = Trace of Precipitation, MM = Missing Value Source: Averaged Metar Reports

Daily Weather History Graph

Daily Weather History Graph

Search for Another Location

Airport or City:

Astronomy

Sep. 18, 2019 Rise Set
Actual Time 6:39 AM CST 6:55 PM CST
Civil Twilight 6:15 AM CST 7:19 PM CST
Nautical Twilight 5:47 AM CST 7:47 PM CST
Astronomical Twilight 5:19 AM CST 8:15 PM CST
Moon 9:28 PM CST (9/18) 9:56 AM CST (9/18)
Length of Visible Light 13h 04m
Length of Day
12h 16m
Waning Gibbous, 86% of the Moon is Illuminated
Sep 18
Waning Gibbous
Sep 22
Last Quarter
Sep 29
New
Oct 6
First Quarter
Oct 14
Full

Hourly Weather History & Observations

Time (CST) Temp. Dew Point Humidity Pressure Visibility Wind Dir Wind Speed Gust Speed Precip Events Conditions
12:00 AM 68.0 °F 66.2 °F 94% 30.09 in 6.2 mi Variable 2.2 mph - N/A   Overcast
1:00 AM 68.0 °F 66.2 °F 94% 30.09 in 5.0 mi Variable 2.2 mph - N/A Rain Light Rain
2:00 AM 69 °F 65 °F 84% 30.07 in 8 mi NW 4.5 mph - -  
2:00 AM 68.0 °F 66.2 °F 94% 30.09 in 5.0 mi West 4.5 mph - N/A   Overcast
3:00 AM 66.2 °F 66.2 °F 100% 30.09 in 5.0 mi WNW 4.5 mph - N/A Rain Light Rain
4:00 AM 66.2 °F 66.2 °F 100% 30.09 in 4.3 mi Variable 2.2 mph - N/A Rain Light Rain
5:00 AM 68 °F 65 °F 86% 30.06 in 6 mi WNW 4.5 mph - - Rain Light Rain
5:00 AM 66.2 °F 66.2 °F 100% 30.09 in 5.0 mi WNW 6.7 mph - N/A Rain Light Rain
6:00 AM 66.2 °F 66.2 °F 100% 30.09 in 5.0 mi WNW 4.5 mph - N/A Rain Light Rain
7:00 AM 66.2 °F 66.2 °F 100% 30.12 in 5.0 mi Variable 4.5 mph - N/A   Overcast
8:00 AM 69 °F 65 °F 82% 30.10 in 11 mi Calm Calm - -   Overcast
8:00 AM 68.0 °F 66.2 °F 94% 30.12 in 5.0 mi Calm Calm - N/A   Scattered Clouds
9:00 AM 68.0 °F 66.2 °F 94% 30.15 in 3.7 mi WSW 4.5 mph - N/A Fog Patches of Fog
10:00 AM 68.0 °F 66.2 °F 94% 30.15 in 6.2 mi Variable 2.2 mph - N/A Rain Light Rain
11:00 AM 71 °F 65 °F 76% 30.13 in 11 mi NW 2.2 mph - -   Clear
11:00 AM 68.0 °F 68.0 °F 100% 30.15 in 4.3 mi ESE 4.5 mph - N/A Fog , Rain Light Rain
1:00 PM 68.0 °F 68.0 °F 100% 30.15 in 3.7 mi SE 4.5 mph - N/A   Overcast
2:00 PM 75 °F 65 °F 64% 30.06 in 12 mi NE 2.2 mph - -   Clear
2:00 PM 71.6 °F 68.0 °F 88% 30.12 in 5.0 mi SE 4.5 mph - N/A   Mostly Cloudy
3:00 PM 71.6 °F 68.0 °F 88% 30.09 in 6.2 mi SE 4.5 mph - N/A   Mostly Cloudy
4:00 PM 71.6 °F 66.2 °F 83% 30.09 in 6.2 mi ESE 4.5 mph - N/A   Scattered Clouds
5:00 PM 75 °F 64 °F 62% 30.02 in 12 mi South 2.2 mph - -   Overcast
5:00 PM 69.8 °F 68.0 °F 94% 30.06 in 6.2 mi East 4.5 mph - N/A   Partly Cloudy
6:00 PM 69.8 °F 66.2 °F 88% 30.06 in 6.2 mi East 6.7 mph - N/A   Scattered Clouds
7:00 PM 69.8 °F 68.0 °F 94% 30.09 in 6.2 mi North 6.7 mph - N/A   Scattered Clouds
8:00 PM 72 °F 65 °F 73% 30.04 in 7 mi East 2.2 mph - -   Overcast
8:00 PM 68.0 °F 66.2 °F 94% 30.09 in 6.2 mi North 6.7 mph - N/A   Scattered Clouds
9:00 PM 68.0 °F 66.2 °F 94% 30.12 in 6.2 mi North 6.7 mph - N/A   Partly Cloudy
10:00 PM 68.0 °F 68.0 °F 100% 30.12 in 6.2 mi NNE 6.7 mph - N/A   Scattered Clouds
11:00 PM 71 °F 66 °F 79% 30.07 in 7 mi ENE 2.2 mph - -  
11:00 PM 68.0 °F 68.0 °F 100% 30.12 in 6.2 mi North 6.7 mph - N/A   Overcast